FW3129 Weather Reports


Display with metric or nautical units.
time (UTC)temp
F
wind
direction
speed
MPH
gust
MPH
rain 1hr
in
rain 24hr
in
rain mn
in
humidity
%
barometer
mb
20260508023029 82 147 2.0 6.0 0.00 0.00 0.00 85 1016.6
20260508021527 82 112 1.0 4.0 0.00 0.00 0.00 84 1016.5
20260508020030 82 99 2.0 6.0 0.00 0.00 0.00 84 1016.4
20260508014528 82 125 3.0 8.0 0.00 0.00 0.00 84 1016.5
20260508013027 82 105 2.0 9.0 0.00 0.00 0.00 83 1016.3
20260508011529 82 182 4.0 9.0 0.00 0.00 0.00 82 1016.4
20260508010030 82 144 2.0 6.0 0.00 0.00 0.00 82 1016.4
20260508004531 82 124 1.0 6.0 0.00 0.00 0.00 81 1016.3
20260508003027 82 108 3.0 10.0 0.00 0.00 0.00 80 1016.2
20260508001530 82 122 6.0 10.0 0.00 0.00 0.00 80 1016.1
20260508000031 82 108 4.0 11.0 0.00 0.00 0.00 80 1016.1
20260507234541 83 109 4.0 10.0 0.00 0.00 0.00 80 1016.0
20260507233029 83 112 6.0 14.0 0.00 0.00 0.00 79 1016.0
20260507231530 83 150 4.0 11.0 0.00 0.00 0.00 78 1015.9
20260507230030 84 143 6.0 10.0 0.00 0.00 0.00 78 1015.7
20260507224531 84 122 3.0 12.0 0.00 0.00 0.00 78 1015.8
20260507223028 84 136 3.0 11.0 0.00 0.00 0.00 79 1015.7
20260507221534 85 139 2.0 11.0 0.00 0.00 0.00 78 1015.7
20260507220035 85 135 5.0 13.0 0.00 0.00 0.00 78 1015.6
20260507214528 85 143 6.0 12.0 0.00 0.00 0.00 78 1015.6
20260507213032 85 147 6.0 13.0 0.00 0.00 0.00 78 1015.6
20260507211534 86 134 5.0 12.0 0.00 0.00 0.00 75 1015.8
20260507210036 86 144 4.0 14.0 0.00 0.00 0.00 77 1015.8
20260507204528 86 191 7.0 12.0 0.00 0.00 0.00 76 1015.8
20260507203027 86 129 5.0 13.0 0.00 0.00 0.00 76 1015.9
20260507201528 86 136 7.0 13.0 0.00 0.00 0.00 75 1015.9
20260507200030 87 140 5.0 11.0 0.00 0.00 0.00 72 1016.1
20260507194545 87 264 2.0 11.0 0.00 0.00 0.00 74 1016.2
20260507193029 88 110 3.0 11.0 0.00 0.00 0.00 74 1016.3
20260507191527 86 179 7.0 14.0 0.00 0.00 0.00 73 1016.5
20260507190041 87 134 4.0 11.0 0.00 0.00 0.00 73 1016.5
20260507184538 86 113 5.0 13.0 0.00 0.00 0.00 73 1016.9
20260507183029 86 131 6.0 14.0 0.00 0.00 0.00 73 1016.9
20260507181528 87 130 5.0 12.0 0.00 0.00 0.00 72 1017.2
20260507180029 86 108 3.0 13.0 0.00 0.00 0.00 73 1017.4
20260507174534 86 137 5.0 12.0 0.00 0.00 0.00 72 1017.5
20260507173042 87 102 4.0 10.0 0.00 0.00 0.00 68 1017.8
20260507171529 85 30 5.0 13.0 0.00 0.00 0.00 73 1017.8
20260507170028 85 154 6.0 12.0 0.00 0.00 0.00 71 1017.9
20260507164535 86 130 5.0 9.0 0.00 0.00 0.00 70 1018.0
20260507163027 86 143 4.0 8.0 0.00 0.00 0.00 70 1018.1
20260507161527 86 103 4.0 8.0 0.00 0.00 0.00 71 1018.4
20260507160029 87 133 1.0 9.0 0.00 0.00 0.00 70 1018.5
20260507154528 85 216 5.0 9.0 0.00 0.00 0.00 71 1018.8
20260507153034 85 146 3.0 8.0 0.00 0.00 0.00 72 1019.0
20260507151532 84 144 5.0 9.0 0.00 0.00 0.00 73 1019.0
20260507150032 85 118 4.0 10.0 0.00 0.00 0.00 72 1019.1
20260507144534 84 148 4.0 9.0 0.00 0.00 0.00 73 1019.1
20260507143029 85 139 3.0 8.0 0.00 0.00 0.00 71 1019.0
20260507141532 84 134 5.0 8.0 0.00 0.00 0.00 71 1018.9
20260507140029 84 99 2.0 6.0 0.00 0.00 0.00 72 1018.9
20260507134530 84 155 3.0 8.0 0.00 0.00 0.00 71 1018.9
20260507133029 84 0 2.0 5.0 0.00 0.00 0.00 71 1019.0
20260507131528 83 129 3.0 6.0 0.00 0.00 0.00 71 1019.0
20260507130036 83 143 1.0 5.0 0.00 0.00 0.00 71 1018.8
20260507124537 83 118 0.0 4.0 0.00 0.00 0.00 72 1018.8
20260507123030 82 120 0.0 5.0 0.00 0.00 0.00 74 1018.7
20260507121530 82 139 2.0 5.0 0.00 0.00 0.00 74 1018.6
20260507120027 82 132 0.0 4.0 0.00 0.00 0.00 76 1018.3
20260507114546 81 0 0.0 3.0 0.00 0.00 0.00 78 1018.1
20260507113048 78 138 1.0 4.0 0.00 0.00 0.00 81 1017.9
20260507111538 78 141 0.0 2.0 0.00 0.00 0.00 82 1017.8
20260507110029 78 0 0.0 4.0 0.00 0.00 0.00 81 1017.6
20260507104539 78 0 1.0 5.0 0.00 0.00 0.00 81 1017.4
20260507103027 77 141 2.0 5.0 0.00 0.00 0.00 82 1017.1
20260507101528 78 0 0.0 5.0 0.00 0.00 0.00 82 1017.0
20260507100030 78 123 1.0 7.0 0.00 0.00 0.00 82 1016.8
20260507094528 78 123 2.0 7.0 0.00 0.00 0.00 82 1016.5
20260507093034 78 95 1.0 6.0 0.00 0.00 0.00 83 1016.7
20260507091531 78 103 3.0 6.0 0.00 0.00 0.00 83 1016.6
20260507090028 78 94 1.0 6.0 0.00 0.00 0.00 83 1016.7
20260507084539 78 135 3.0 7.0 0.00 0.00 0.00 82 1016.6
20260507083030 78 95 2.0 8.0 0.00 0.00 0.00 82 1016.7
20260507081535 78 194 2.0 6.0 0.00 0.00 0.00 83 1016.9
20260507080028 78 153 1.0 4.0 0.00 0.00 0.00 83 1017.0
20260507074526 78 126 1.0 7.0 0.00 0.00 0.00 83 1016.9
20260507073028 78 124 0.0 3.0 0.00 0.00 0.00 83 1017.0
20260507071529 78 0 0.0 3.0 0.00 0.00 0.00 82 1017.0
20260507070029 78 0 0.0 10.0 0.00 0.00 0.00 81 1016.8
20260507064528 78 96 0.0 4.0 0.00 0.00 0.00 81 1017.2
20260507063034 78 110 1.0 4.0 0.00 0.00 0.00 81 1017.5
20260507061530 77 0 0.0 1.0 0.00 0.00 0.00 80 1017.7
20260507060030 77 0 0.0 0.0 0.00 0.00 0.00 78 1017.8
20260507054528 78 0 0.0 4.0 0.00 0.00 0.00 78 1017.8
20260507053030 78 0 0.0 0.0 0.00 0.00 0.00 77 1017.9
20260507051528 78 101 0.0 2.0 0.00 0.00 0.00 75 1018.0
20260507050032 78 0 0.0 2.0 0.00 0.00 0.00 75 1018.3
20260507044528 78 0 1.0 5.0 0.00 0.00 0.00 74 1018.3
20260507043029 79 106 0.0 2.0 0.00 0.00 0.00 74 1018.4
20260507041530 79 111 0.0 4.0 0.00 0.00 0.00 74 1018.5
20260507040029 79 112 0.0 4.0 0.00 0.00 0.00 73 1018.5
20260507034534 79 84 0.0 5.0 0.00 0.00 0.00 73 1018.7
20260507033030 79 0 0.0 6.0 0.00 0.00 0.00 72 1018.8
20260507031527 79 94 0.0 5.0 0.00 0.00 0.00 71 1018.8
20260507030028 79 87 0.0 3.0 0.00 0.00 0.00 72 1018.7
20260507024527 79 76 0.0 4.0 0.00 0.00 0.00 71 1018.7